Location: Champs
(48.8539°N, 2.6040°E)
Time: 10:46:00
(UTC+00:00)

USA 308 - Pass Details

Date: 05 June 2022
Orbit: 549 x 558 km, 54.0° (Epoch: 14 June)

Event Time Altitude Azimuth Distance (km) Brightness Sun altitude
Rises 23:57:13 0° 277° (W) 2,732 6.4 -18.6°
Reaches altitude 10° 23:59:33 10° 284° (WNW) 1,840 5.6 -18.6°
Maximum altitude 00:03:31 41° 356° (N) 822 4.2 -18.5°
Drops below altitude 10° 00:07:30 10° 67° (ENE) 1,847 5.8 -18.5°
Sets 00:09:51 0° 75° (ENE) 2,744 6.7 -18.5°
